User: anonymous   Login
Location: Unspecified
(0.0000°N, 0.0000°E)
Time: 18:55:34
(UTC+00:00)
Language:

Altair - Orbit

View from above orbital plane
View from above orbital plane
View from above satellite
View from above satellite

Ground track
Ground track

The orbit data is extracted from the following two-line orbital elements,

1 00050U 60009B   18175.51786556 -.00000107  00000-0 -20286-3 0  9996
2 00050  47.2287 208.1143 0113926 327.7045  31.6806 12.20104967582287
Epoch (UTC): 24 June 2018 12:25:43
Eccentricity: 0.0113926
inclination: 47.2287°
perigee height: 1501 km
apogee height: 1683 km
right ascension of ascending node: 208.1143°
argument of perigee: 327.7045°
revolutions per day: 12.20104967
mean anomaly at epoch: 31.6806°
orbit number at epoch: 58228

The dashed part of the orbit path shows where the satellite is in the earth's shadow,  

DLR